ATLAS CENTAUR R/B, 6058

Orbit data source: Space-Track

ATLAS CENTAUR R/B, 6058 is space debris in HEO originally from a launch on Tue, 13 Jun 1972 UTC launched from the Air Force Eastern Test Range (AFETR). Debris objects in space refer to the collection of defunct objects orbiting the Earth. Examples of debris include non-operational satellites, rocket bodies, and fragments generated from explosions, collisions, or faulty payload assembly.

Loading next visibility...
Identifier
6058, 1972-041B
Orbit
HEO
Country
Flag of USUS
Related business
Manufacturer
GD/Convair
Mission
Spacecraft
Bus & Motor
CENTAUR D, Unknown motor
Mass
~1,700 kg wet, ~1,700 kg dry
Launch date (UTC)
1972-06-13 (53 years ago)
Launch vehicle
Unknown
Launch site
Air Force Eastern Test Range (AFETR)
Object type
Payload
Rocket body
Debris
Shape & HBR
Cyl, 4.5 m
Radar Cross Section
25.930 m², Large (>1 m²)

Expand to show TLE details & history
Last TLE update: 4 days ago

TLE from 4 days ago
0 ATLAS CENTAUR R/B
1 06058U 72041B   25239.25154409 -.00000074  00000-0  64245-3 0  9990
2 06058  27.1885 332.9124 7207002 292.4796   9.5985  2.22531162430853
Epoch: 2025-08-27T06:02Z
TLE epoch observation values (Epoch: 2025-08-27T06:02:13.409Z)
Latitude
-0.0001°
Longitude
-93.34413°
Altitude
2,988.396 km
Speed
8.308 km/s
True Right ascension
22h 11m 46s
True Declination
0° 00' 00"
Sunlit
Object was in full shadow at epoch
Visualization orbit readout
Latitude
Unknown
Longitude
Unknown
Altitude
Unknown
Speed
Unknown
Apparent Right ascension
Unknown
Apparent Declination
Unknown
Sunlit
N/A
Visualization observer readout
Local Sidereal Time
06:12:34
Azimuth
Unknown
Elevation
Unknown
Doppler factor
Unknown
Orbital elements
Apogee altitude
36,271.07 km
Perigee altitude
544.577 km
Semi-major axis
24,785.961 km
Eccentricity
0.7207
Inclination
27.1885°
RAAN
332.9124°
Arg. of periapsis
292.4796°
True anomaly
68.44315°
Mean anomaly
9.5985°
Eccentric anomaly
30.64841°
Mean motion
0.5562 °/min
Orbital period
647.24 mins
BSTAR
0.00064245
Loading maneuver chart data...
Computing Atmospheric mass density...
Loading historical data...
Loading historical data...
Loading historical data...
Loading historical data...
Loading historical data...
Loading historical data...
Loading historical data...
Other satellites on launch #41 in the year 1972 (1972-06-13 UTC)

Documentation

Showing up to 5 results
|